Terug naar catalogus

SL-8 DEB

ActiefLEO
NORAD 38667·DEBRIS·🇷🇺 Russia

Gelanceerd Sep 11, 1974 vanaf Plesetsk Cosmodrome

Loading…

Volgende Passages (komende 24 uur)

TLE

VerouderendSource: Space-Track

Epoch: Sep 8, 2026, 02:52 UTC

1 38667U 74071E   26251.11956324  .00000093  00000-0  40139-4 0  9999
2 38667  74.0507 172.7555 0021385 321.9775  37.9868 14.37018216689962

Volg SL-8 DEB in realtime met AllMySat

Download on the App Store